Location: St. Louis
(38.6270°N, 90.1994°W)
Time: 00:29:18
(UTC-06:00)

Vanguard 2 - Pass Details

Date: 01 December 2021
Orbit: 553 x 2936 km, 32.9° (Epoch: 16 January)

Event Time Altitude Azimuth Distance (km) Brightness Sun altitude
Rises 19:33:09 0° 273° (W) 4,558 12.6 -33.2°
Reaches altitude 10° 19:36:13 10° 263° (W) 3,889 11.9 -33.8°
Maximum altitude 19:45:22 32° 206° (SSW) 3,265 10.8 -35.6°
Enters shadow 19:57:15 12° 153° (SSE) 5,278 11.5 -38.0°
Drops below altitude 10° 19:58:15 10° 151° (SSE) 5,495 - -38.2°
Sets 20:03:41 0° 143° (SE) 6,691 - -39.2°
